星链-32592 (STARLINK-32592)

导读

STARLINK-32592是美国太空探索技术公司(SpaceX)星链(Starlink)低轨互联网星座的成员卫星,于2024年11月21日由猎鹰9号运载火箭发射。作为星链全球组网计划的一部分,该卫星运行在近地轨道,主要为全球范围,尤其偏远地区,提供高速低时延的宽带互联网接入服务,助力星链实现全球覆盖的通信网络建设目标。

基本信息
目录编号:
62035
目录名称:
STARLINK-32592
国际标识:
2024-216D
轨道中心:
EARTH
卫星名称:
星链-32592
卫星全名:
星链-32592 (STARLINK-32592)
卫星状态:
在轨 (已飞行660 天)
发射日期:
2024-11-21 UTC
国别 :
美国 (US)
星等 :
--
该卫星已列入 空间交会检测服务 Space Conjunction Data Service (SCDS) ,当前飞行风险评估等级: 无高风险
轨道信息
数据来源 国际轨道数据 AOE轨道数据
星历时间 2026-09-12T03:10:04+0800
12小时前
查看轨道信息
2026-09-06T07:00:00+0800
6天前
查看轨道信息
半长轴 6861.182km 6861.205km
偏心率 0.0000659 0.0000798
轨道倾角 42.998° 43.003°
近地点辐角 283.130° 292.119°
升交点赤经 292.629° 325.611°
平近点角 76.947° 312.671°
近地点 482.592km 482.52km
远地点 483.498km 483.616km
周期 94.267分钟 94.267分钟
每日圈数 15.275815 15.27574
详细信息
固有亮度:
5
最大亮度:
2.5
卫星平台:
Starlink V1.0
覆盖范围:
全球
运营商:
太空探索技术公司
运营商所在国:
美国
制造商(研发单位):
太空探索技术公司
制造商所在国:
美国
使用方式:
暂无
卫星简介
Starlink 计划是 SpaceX 推出的全球卫星互联网项目,通过发射低轨道卫星,为全球尤其是偏远地区提供高速、低延迟的互联网服务。自 2019 年起,Starlink 已部署数千颗卫星,旨在缩小全球数字鸿沟,推动互联网普及。该项目还为军事、航空等行业提供通信支持,带来广泛经济效益。
2D轨道图
3D轨道图
轨道高度分析图
轨道倾角分析图
轨道综合分析图
查看轨道综合分析图
交会数据列表
事件ID 空间交会对象 最接近时刻(TCA) 交会距离 交会风险概率(CRP) 交会风险指数(CRI) 操作
CDM_260914-202505-978206-203521
2026-09-14T
20:25:58+0000
0.616 km
远距离
6.120506E-5 中风险 0.71
CDM_260913-025205-874706-203521
2026-09-13T
02:52:25+0000
0.716 km
远距离
3.261995E-5 中风险 0.65
CDM_260912-194805-874706-203521
2026-09-12T
19:48:42+0000
1.270 km
极远距离
4.718254E-6 低风险 0.48
CDM_260913-011805-874706-203521
2026-09-13T
01:18:15+0000
1.401 km
极远距离
3.428033E-6 低风险 0.46
CDM_260912-181405-874706-203521
2026-09-12T
18:14:33+0000
1.650 km
极远距离
2.083222E-6 低风险 0.41
CDM_260914-185105-978206-203521
2026-09-14T
18:51:49+0000
1.896 km
极远距离
1.676891E-6 低风险 0.39
CDM_260913-103405-686606-203521
OBJECT W (56866)
2026-09-13T
10:34:11+0000
2.224 km
极远距离
1.514802E-6 低风险 0.39
CDM_260914-174705-864806-203521
2026-09-14T
17:47:20+0000
2.400 km
极远距离
1.213049E-6 低风险 0.37
CDM_260913-233100-066006-203521
2026-09-13T
23:31:37+0000
2.308 km
极远距离
9.540492E-7 极低风险 0.35
CDM_260913-042605-874706-203521
2026-09-13T
04:26:34+0000
2.581 km
极远距离
7.764451E-7 极低风险 0.33
与全量物体交会距离演化趋势
与全量物体交会风险概率演化趋势